Carbondale, IL

7:13 AM CST on December 09, 2019 (GMT -0600)
Southern Illinois

Weather History for KMDH - October, 2019

Change the Weather History Date:

Saturday, October 26, 2019

  Actual Average Record
Temperature  
Mean Temperature 52 °F -  
Max Temperature 54 °F 66 °F 91 °F (1940)
Min Temperature 51 °F 38 °F 23 °F (1982)
Degree Days  
Heating Degree Days 12    
Growing Degree Days 2 (Base 50)    
Moisture  
Dew Point 50 °F    
Average Humidity 92    
Maximum Humidity 97    
Minimum Humidity 80    
Precipitation  
Precipitation 3.70 in - - ()
Sea Level Pressure  
Sea Level Pressure 29.69 in    
Wind  
Wind Speed 10 mph (NNW)    
Max Wind Speed 20 mph    
Max Gust Speed 29 mph    
Visibility 5 miles    
Events Rain    
Averages and records for this station are not official NWS values.
T = Trace of Precipitation, MM = Missing Value Source: NWS Daily Summary

Daily Weather History Graph

Daily Weather History Graph

Search for Another Location

Airport or City:

Astronomy

Oct. 26, 2019 Rise Set
Actual Time 7:15 AM CDT 6:05 PM CDT
Civil Twilight 6:49 AM CDT 6:32 PM CDT
Nautical Twilight 6:18 AM CDT 7:02 PM CDT
Astronomical Twilight 5:47 AM CDT 7:33 PM CDT
Moon 5:14 AM CDT (10/26) 5:38 PM CDT (10/26)
Length of Visible Light 11h 43m
Length of Day
10h 49m
Waning Crescent, 3% of the Moon is Illuminated
Oct 26
Waning Crescent
Oct 27
New
Nov 4
First Quarter
Nov 12
Full
Nov 19
Last Quarter

Hourly Weather History & Observations

Time (CDT) Temp. Dew Point Humidity Pressure Visibility Wind Dir Wind Speed Gust Speed Precip Events Conditions
12:52 AM 52.0 °F 46.0 °F 80% 30.05 in 10.0 mi NE 9.2 mph - 0.00 in Rain Light Rain
1:52 AM 51.1 °F 46.9 °F 86% 30.02 in 7.0 mi NNE 6.9 mph - 0.03 in Rain Light Rain
2:44 AM 51.1 °F 48.0 °F 89% 29.99 in 7.0 mi NNE 6.9 mph - 0.02 in Rain Light Rain
2:52 AM 51.1 °F 48.0 °F 89% 29.99 in 5.0 mi NNE 6.9 mph - 0.03 in Rain Rain
3:40 AM 51.1 °F 48.9 °F 92% 29.97 in 3.0 mi NNW 5.8 mph - 0.08 in Rain Light Rain
3:50 AM 51.8 °F 48.2 °F 88% 29.96 in 2.0 mi North 5.8 mph - 0.12 in Rain Heavy Rain
3:52 AM 51.1 °F 48.9 °F 92% 29.96 in 2.0 mi North 5.8 mph - 0.14 in Rain Heavy Rain
4:03 AM 51.1 °F 48.9 °F 92% 29.93 in 2.0 mi NNE 8.1 mph - 0.05 in Rain Rain
4:13 AM 51.1 °F 48.9 °F 92% 29.94 in 2.0 mi NE 8.1 mph - 0.10 in Rain Rain
4:52 AM 51.1 °F 48.9 °F 92% 29.88 in 2.5 mi NE 13.8 mph 21.9 mph 0.30 in Rain Rain
5:52 AM 51.1 °F 50.0 °F 96% 29.86 in 2.0 mi NNE 6.9 mph - 0.37 in Rain Heavy Rain
6:52 AM 52.0 °F 50.0 °F 93% 29.84 in 2.5 mi NE 5.8 mph - 0.31 in Rain Rain
7:52 AM 52.0 °F 50.0 °F 93% 29.78 in 3.0 mi ENE 16.1 mph - 0.37 in Rain Heavy Rain
7:59 AM 52.0 °F 51.1 °F 97% 29.77 in 3.0 mi ENE 17.3 mph 28.8 mph 0.03 in Rain Rain
8:52 AM 53.1 °F 51.1 °F 93% 29.75 in 1.8 mi ENE 19.6 mph 28.8 mph 0.29 in Rain Heavy Rain
9:03 AM 53.1 °F 51.1 °F 93% 29.75 in 3.0 mi ENE 17.3 mph 28.8 mph 0.03 in Rain Light Rain
9:14 AM 53.1 °F 51.1 °F 93% 29.74 in 1.8 mi NE 15.0 mph - 0.07 in Rain Rain
9:30 AM 53.1 °F 51.1 °F 93% 29.75 in 1.2 mi NE 10.4 mph 18.4 mph 0.19 in Rain Heavy Rain
9:45 AM 53.1 °F 51.1 °F 93% 29.74 in 1.2 mi NE 11.5 mph 24.2 mph 0.30 in Rain Heavy Rain
9:52 AM 53.1 °F 51.1 °F 93% 29.73 in 1.5 mi NNE 12.7 mph 24.2 mph 0.34 in Rain Heavy Rain
10:07 AM 53.1 °F 51.1 °F 93% 29.71 in 1.8 mi NNE 13.8 mph 23.0 mph 0.09 in Rain Heavy Rain
10:19 AM 53.1 °F 51.1 °F 93% 29.69 in 1.2 mi NE 11.5 mph 18.4 mph 0.20 in Rain Heavy Rain
10:52 AM 52.0 °F 51.1 °F 97% 29.66 in 1.0 mi NNE 9.2 mph 17.3 mph 0.51 in Rain Heavy Rain
11:07 AM 52.0 °F 50.0 °F 93% 29.64 in 2.0 mi NNE 11.5 mph 19.6 mph 0.07 in Rain Heavy Rain
11:45 AM 52.0 °F 51.1 °F 97% 29.59 in 1.8 mi NE 8.1 mph - 0.18 in Rain Rain
11:52 AM 52.0 °F 51.1 °F 97% 29.57 in 3.0 mi NE 10.4 mph - 0.19 in Rain Rain
12:06 PM 53.1 °F 51.1 °F 93% 29.56 in 1.8 mi NNE 9.2 mph - 0.08 in Rain Heavy Rain
12:52 PM 53.1 °F 51.1 °F 93% 29.51 in 1.2 mi North 9.2 mph - 0.48 in Rain Heavy Rain
1:17 PM 52.0 °F 51.1 °F 97% 29.50 in 3.0 mi NW 9.2 mph - 0.14 in Rain Light Rain
1:30 PM 52.0 °F 51.1 °F 97% 29.48 in 4.0 mi NNW 12.7 mph 19.6 mph 0.15 in Rain Light Rain
1:35 PM 53.1 °F 51.1 °F 93% 29.48 in 2.5 mi NW 11.5 mph - 0.16 in Rain Rain
1:38 PM 52.0 °F 51.1 °F 97% 29.48 in 2.5 mi NW 11.5 mph - 0.17 in Rain Light Rain
1:52 PM 53.1 °F 51.1 °F 93% 29.45 in 2.0 mi NNW 15.0 mph 21.9 mph 0.18 in Rain Light Rain
2:17 PM 53.1 °F 51.1 °F 93% 29.46 in 2.0 mi NW 11.5 mph 26.5 mph 0.04 in Rain Rain
2:28 PM 53.1 °F 51.1 °F 93% 29.46 in 3.0 mi NNW 11.5 mph 21.9 mph 0.05 in Rain Light Rain
2:48 PM 53.6 °F 51.8 °F 94% 29.46 in 7.0 mi West 10.4 mph - 0.06 in Rain Light Rain
2:52 PM 54.0 °F 52.0 °F 93% 29.46 in 9.0 mi West 8.1 mph - 0.06 in Rain Light Rain
3:43 PM 54.0 °F 51.1 °F 90% 29.51 in 9.0 mi WSW 10.4 mph 26.5 mph 0.01 in Rain Light Rain
3:52 PM 54.0 °F 51.1 °F 90% 29.52 in 7.0 mi WSW 12.7 mph 21.9 mph 0.02 in Rain Light Rain
4:30 PM 53.1 °F 51.1 °F 93% 29.45 in 10.0 mi NNW 6.9 mph - 0.01 in Rain Light Rain
4:52 PM 53.1 °F 51.1 °F 93% 29.53 in 10.0 mi WSW 10.4 mph - 0.01 in   Overcast
5:15 PM 54.0 °F 50.0 °F 86% 29.59 in 10.0 mi SW 15.0 mph - N/A   Overcast
5:31 PM 53.1 °F 50.0 °F 89% 29.60 in 7.0 mi WSW 16.1 mph 26.5 mph 0.00 in Rain Light Rain
5:52 PM 53.1 °F 50.0 °F 89% 29.60 in 2.5 mi WSW 13.8 mph 21.9 mph 0.03 in Rain Light Rain
5:59 PM 53.1 °F 50.0 °F 89% 29.61 in 4.0 mi West 11.5 mph 21.9 mph 0.00 in   Overcast
6:06 PM 53.1 °F 50.0 °F 89% 29.61 in 4.0 mi WSW 12.7 mph - 0.00 in   Overcast
6:18 PM 53.1 °F 50.0 °F 89% 29.62 in 4.0 mi WSW 15.0 mph 23.0 mph 0.00 in   Overcast
6:52 PM 52.0 °F 50.0 °F 93% 29.62 in 10.0 mi West 9.2 mph - 0.01 in   Overcast
7:33 PM 52.0 °F 48.9 °F 89% 29.65 in 10.0 mi West 11.5 mph 23.0 mph 0.03 in Rain Light Rain
7:48 PM 51.8 °F 48.2 °F 88% 29.65 in 10.0 mi West 10.4 mph - 0.03 in   Overcast
7:52 PM 51.1 °F 48.0 °F 89% 29.65 in 10.0 mi West 12.7 mph 20.7 mph 0.03 in   Overcast
8:52 PM 51.1 °F 48.0 °F 89% 29.71 in 10.0 mi West 11.5 mph - 0.00 in   Overcast
9:52 PM 51.1 °F 48.0 °F 89% 29.74 in 10.0 mi WSW 6.9 mph - N/A   Overcast
10:17 PM 51.1 °F 48.0 °F 89% 29.75 in 10.0 mi West 5.8 mph - N/A   Overcast
10:52 PM 51.1 °F 48.0 °F 89% 29.79 in 10.0 mi SW 9.2 mph - N/A   Overcast
11:52 PM 51.1 °F 48.0 °F 89% 29.81 in 10.0 mi WSW 8.1 mph - N/A   Overcast